Location: Peebles
(55.6412°N, 3.1714°W)
Time: 03:31:53
(UTC+01:00)

IRIDIUM 33 DEB - Visible Passes

Search period start: 01 July 2022 00:00
Search period end: 11 July 2022 00:00
Orbit: 709 x 804 km, 86.2° (Epoch: 27 June)

Date Brightness Start Highest point End Pass type
(mag) Time Alt. Az. Time Alt. Az. Time Alt. Az.
01 Jul ? 01:27:04 10° N 01:31:29 33° ENE 01:35:53 10° SE visible
01 Jul ? 03:07:20 10° NNW 03:11:57 43° W 03:16:31 10° SSW visible
02 Jul ? 00:47:45 10° NNE 00:51:18 20° ENE 00:54:49 10° ESE visible
02 Jul ? 02:27:22 10° N 02:32:16 79° W 02:36:55 11° S visible
03 Jul ? 00:09:16 10° NE 00:10:54 11° ENE 00:12:33 10° ENE visible
03 Jul ? 01:47:34 10° N 01:52:24 57° E 01:57:05 11° SSE visible
03 Jul ? 03:28:28 10° NNW 03:32:23 25° W 03:36:19 10° SW visible
04 Jul ? 01:07:58 10° N 01:12:22 32° ENE 01:16:44 10° SE visible
04 Jul ? 02:48:13 10° NNW 02:52:51 44° W 02:57:15 11° SSW visible
05 Jul ? 00:28:40 10° NNE 00:32:08 19° ENE 00:35:36 10° ESE visible
05 Jul ? 02:08:14 10° N 02:13:08 81° W 02:17:26 13° S visible
05 Jul ? 23:50:18 10° NE 23:51:44 11° ENE 23:53:10 10° ENE visible
06 Jul ? 01:28:26 10° N 01:33:14 55° E 01:37:36 12° SSE visible
06 Jul ? 03:09:16 10° NNW 03:13:15 26° W 03:17:15 10° SW visible
07 Jul ? 00:48:50 10° N 00:53:11 31° ENE 00:57:31 10° SE visible
07 Jul ? 02:29:02 10° NNW 02:33:40 46° W 02:37:47 13° SSW visible
08 Jul ? 00:09:32 10° NNE 00:12:56 18° ENE 00:16:20 10° ESE visible
08 Jul ? 01:49:02 10° N 01:53:56 84° W 01:57:57 15° S visible
08 Jul ? 03:30:43 10° NW 03:33:30 15° WNW 03:36:18 10° WSW visible
08 Jul ? 23:31:17 10° NE 23:32:29 11° ENE 23:33:41 10° ENE visible
09 Jul ? 01:09:14 10° N 01:14:02 54° E 01:18:08 14° SSE visible
09 Jul ? 02:50:01 10° NNW 02:54:04 27° W 02:58:08 10° SW visible
10 Jul ? 00:29:37 10° N 00:33:56 30° ENE 00:38:15 10° SE visible
10 Jul ? 02:09:47 10° NNW 02:14:28 48° W 02:18:19 15° SSW visible
10 Jul ? 23:50:19 10° NNE 23:53:39 18° ENE 23:57:00 10° ESE visible
